Lid_Strength_Index
5 5 5 7 10 7 13 11 14 13 10 9 7 7 6 6 5 5 4 3 3 2 2 2 1 1 1 1 1 0 0 -0
5 5 5 6 5 10 10 15 18 15 15 12 10 8 7 6 6 5 4 4 3 2 2 2 1 1 0 0 1 0 -0 -0
6 7 7 7 8 7 8 10 14 16 15 8 9 8 7 6 5 5 4 4 3 2 2 1 1 1 1 1 1 0 0 -0
8 5 5 6 7 7 10 11 9 10 14 7 7 6 6 6 5 4 4 3 3 2 2 1 2 1 1 1 1 0 0 0
9 7 6 7 6 6 7 7 9 11 13 7 6 6 6 6 5 4 4 4 4 4 3 2 2 2 1 1 1 0 0 0
12 11 8 8 7 6 7 9 9 9 12 9 8 8 7 6 5 4 4 4 4 4 4 3 3 2 2 2 1 1 1 1
8 8 8 7 7 7 8 7 9 8 8 8 7 7 7 6 6 5 5 4 4 4 4 3 3 3 2 2 2 1 1 1
9 8 8 8 7 7 7 7 7 7 7 6 6 6 6 7 6 6 6 5 4 4 3 3 3 2 2 2 1 1 1 1
11 8 8 10 8 7 7 6 6 9 9 5 8 7 7 7 6 6 5 5 5 4 4 3 2 2 2 1 1 1 1 1
11 10 15 8 5 6 7 8 6 7 7 6 6 6 6 5 5 5 5 5 4 5 3 3 2 2 2 1 1 1 1 1
11 13 12 10 7 7 8 9 6 7 6 6 6 6 7 4 4 4 4 4 4 5 6 5 3 2 1 1 1 2 3 2
11 13 18 13 8 5 5 11 7 6 6 7 7 9 8 5 4 4 3 4 6 6 6 7 6 4 4 4 4 5 4 3
10 12 11 8 7 5 12 11 5 5 6 7 8 7 5 4 4 3 5 6 5 7 8 7 7 7 7 7 8 7 6 4
9 14 15 5 6 10 7 5 5 5 5 6 6 5 5 4 4 5 6 7 7 8 7 6 7 8 8 7 6 6 6 5
8 11 6 4 5 4 4 5 5 4 5 4 5 5 5 5 4 5 5 6 6 7 7 6 5 6 7 6 5 5 5 5
8 6 6 5 4 3 3 4 3 3 3 4 5 5 5 4 4 4 4 4 5 5 5 7 5 6 5 5 4 4 4 4
6 6 5 5 4 4 3 3 3 3 3 4 4 4 4 4 5 5 6 6 5 4 4 5 5 5 5 4 3 4 5 5
8 5 5 5 4 3 4 4 3 4 4 3 4 4 4 5 4 5 5 5 5 5 5 5 5 5 4 3 4 5 5 5
5 4 4 3 3 3 3 3 3 3 3 4 3 3 4 6 6 5 4 4 4 5 5 4 4 5 4 4 5 5 5 5